Location: Blankensee
(53.5126°N, 14.3055°E)
Time: 17:58:30
(UTC+00:00)

Cosmos 1703 - Pass Details

Date: 08 August 2020
Orbit: 523 x 540 km, 82.5° (Epoch: 19 September)

Event Time Altitude Azimuth Distance (km) Brightness Sun altitude
Rises 02:16:59 0° 350° (N) 2,716 7.4 -9.6°
Reaches altitude 10° 02:19:10 10° 354° (N) 1,819 6.5 -9.4°
Maximum altitude 02:23:08 62° 76° (ENE) 617 3.9 -8.9°
Drops below altitude 10° 02:27:04 10° 158° (SSE) 1,799 5.7 -8.5°
Sets 02:29:13 0° 162° (SSE) 2,684 6.6 -8.3°
